User: anonymous   Login
Location: Ostrava
(49.8330°N, 18.2830°E)
Time: 13:39:08
(UTC+01:00)
Language:

Explorer 7 - Orbit

View from above orbital plane
View from above orbital plane
View from above satellite
View from above satellite

Ground track
Ground track

The orbit data is extracted from the following two-line orbital elements,

1 00022U 59009A   16344.71040584  .00000433  00000-0  56793-4 0  9998
2 00022  50.2851   9.7260 0142767  30.4589 330.4555 14.93858994 33020
Epoch (UTC): 09 December 2016 17:02:59
Eccentricity: 0.0142767
inclination: 50.2851°
perigee height: 486 km
apogee height: 685 km
right ascension of ascending node: 9.7260°
argument of perigee: 30.4589°
revolutions per day: 14.93858994
mean anomaly at epoch: 330.4555°
orbit number at epoch: 3302

The dashed part of the orbit path shows where the satellite is in the earth's shadow,  

DLR